Probability
0 0 0 0 0 0 0 0 0 0 0 0 0 0 0 0 0 0 0 0 0 0 0 0 0 0 0 0 0 0 0 0 0 0 0 0 0 0
0 0 0 0 0 0 0 0 0 0 0 0 0 0 0 0 0 0 0 0 0 0 0 0 0 0 0 0 0 0 0 0 0 0 0 0 0 0
0 0 0 0 0 0 0 0 0 0 0 0 0 0 0 0 0 0 0 0 0 0 0 0 0 0 0 0 0 0 0 0 0 0 0 0 0 0
0 0 0 0 0 0 0 0 0 0 0 0 0 0 0 0 0 0 0 0 0 0 0 0 0 0 0 0 0 0 0 0 0 0 0 0 0 0
0 0 0 0 0 0 0 0 0 0 0 0 0 0 0 0 0 0 0 0 0 0 0 0 0 0 0 0 0 0 0 0 0 0 0 0 0 0
0 0 0 0 0 0 0 0 0 0 0 0 0 0 0 0 0 0 0 0 0 0 0 0 0 0 0 0 0 0 0 0 0 0 0 0 0 0
0 0 0 0 0 0 0 0 0 0 0 0 0 0 0 0 0 0 0 0 0 0 0 0 0 0 0 0 0 0 0 0 0 0 0 0 0 0
0 0 0 0 0 0 0 0 0 0 0 0 0 0 0 0 0 0 0 0 0 0 0 0 0 0 0 0 0 0 0 0 0 0 0 0 0 0
0 0 0 0 0 0 0 0 0 0 0 0 0 0 0 0 0 0 0 0 0 0 0 0 0 0 0 0 0 0 0 0 0 0 0 0 0 0
0 0 0 0 0 0 0 0 0 0 0 0 0 0 0 0 0 0 0 0 0 0 0 0 0 0 0 0 0 0 0 0 0 0 0 0 0 0
0 0 0 0 0 0 0 0 0 0 0 0 0 0 0 0 0 0 0 0 0 0 0 0 0 0 0 0 0 0 0 0 0 0 0 0 0 0
0 0 0 0 0 0 0 0 0 0 0 0 0 0 0 0 0 0 0 0 0 0 0 0 0 0 0 0 0 0 0 0 0 0 0 0 0 0
0 0 0 0 0 0 0 0 0 0 0 0 0 0 0 0 0 0 0 0 0 0 0 0 0 0 0 0 0 0 0 0 0 0 0 0 0 0
0 0 0 0 0 0 0 0 0 0 0 0 0 0 0 0 0 0 0 0 0 0 0 0 0 0 0 0 0 0 0 0 0 0 0 0 0 0
0 0 0 0 0 0 0 0 0 0 0 0 0 0 0 0 0 0 0 0 0 0 0 0 0 0 0 0 0 0 0 0 0 0 0 0 0 0
0 0 0 0 0 0 0 0 0 0 0 0 0 0 0 0 0 0 0 0 0 0 0 0 0 0 0 0 0 0 0 0 0 0 0 0 0 0
0 0 0 0 0 0 0 0 0 0 0 0 0 0 0 0 0 0 0 0 0 0 0 0 0 0 0 0 0 0 0 0 0 0 0 0 0 0
0 0 0 0 0 0 0 0 0 0 0 0 0 0 0 0 0 0 0 0 0 0 0 0 0 0 0 0 0 0 0 0 0 0 0 0 0 0
0 0 0 0 0 0 0 0 0 0 0 0 0 0 0 0 0 0 0 0 0 0 0 0 0 0 0 0 0 0 0 0 0 0 0 0 0 0
0 0 0 0 0 0 0 0 0 0 0 0 0 0 0 0 0 0 0 0 0 0 0 0 0 0 0 0 0 0 0 0 0 0 0 0 0 0
0 0 0 0 0 0 0 0 0 0 0 0 0 0 0 0 0 0 0 0 0 0 0 0 0 0 0 0 0 0 0 0 0 0 0 0 0 0
0 0 0 0 0 0 0 0 0 0 0 0 0 0 0 0 0 0 0 0 0 0 0 0 0 0 0 0 0 0 0 0 0 0 0 0 0 0
0 0 0 0 0 0 0 0 0 0 0 0 0 0 0 0 0 0 0 0 0 0 0 0 0 0 0 0 0 0 0 0 0 0 0 0 0 0
Wind_Speed
17 18 16 13 11 11 9 9 10 13 12 8 8 8 9 9 16 11 9 20 25 24 24 24 24 25 25 25 25 26 26 26 26 26 27 27 28 28
14 15 17 13 11 11 11 10 11 13 15 5 8 6 9 10 16 12 11 23 26 25 24 24 25 25 26 26 26 26 27 27 27 28 28 28 29 29
16 17 19 15 13 11 10 11 12 12 18 9 6 7 9 9 9 7 8 9 10 23 25 25 26 26 26 26 27 27 28 28 28 28 29 29 30 30
17 17 18 14 17 13 12 14 13 13 15 16 7 7 10 9 9 8 9 9 8 19 26 26 26 26 27 27 27 27 27 27 28 28 29 30 30 31
17 17 17 16 17 14 15 14 13 13 13 14 11 7 8 7 8 8 10 8 10 15 22 25 26 27 27 27 27 27 27 27 28 29 29 30 31 32
15 16 16 17 18 16 15 15 13 13 12 12 11 8 8 7 7 9 10 8 10 11 15 17 21 25 26 26 26 26 26 27 28 29 30 31 31 32
14 15 16 20 23 19 14 12 12 12 11 12 12 10 10 8 9 8 10 8 8 9 9 10 10 9 11 19 24 25 27 28 29 30 31 31 32 33
14 14 15 20 24 30 32 28 22 16 14 14 13 13 12 12 10 9 9 8 8 7 9 10 9 10 9 8 19 26 28 29 29 30 31 32 32 33
12 12 12 13 20 14 21 30 28 32 28 17 17 16 13 12 11 12 12 11 11 6 5 8 8 10 8 12 24 27 28 29 30 31 31 32 33 34
11 12 13 12 13 14 12 14 14 15 19 18 16 14 13 10 11 13 12 11 9 8 8 11 9 10 9 8 21 27 28 29 30 31 31 32 33 34
10 10 12 12 19 25 16 14 14 13 22 28 25 21 25 26 19 11 11 10 11 9 8 8 8 9 9 9 13 25 28 29 29 30 30 31 32 32
7 9 17 17 20 23 15 13 15 12 10 11 16 19 17 20 26 17 12 11 8 7 7 7 6 5 6 6 8 8 12 21 27 29 31 31 32 21
7 6 8 18 21 22 20 13 17 13 9 10 10 10 9 9 9 10 9 9 9 8 5 6 5 6 8 8 7 8 9 10 12 16 23 29 31 26
8 6 8 18 20 22 17 17 22 20 9 9 10 10 9 9 9 9 10 10 10 10 7 7 6 7 9 12 11 6 6 8 10 12 12 20 25 29
7 14 16 19 19 15 19 21 18 11 9 10 10 10 9 8 7 6 7 8 8 9 8 8 9 8 9 12 13 11 11 10 11 11 11 12 12 13
9 12 17 17 13 12 12 11 8 7 8 8 8 7 6 6 7 6 6 6 6 7 8 10 10 11 11 13 13 13 12 10 8 10 12 13 13 13
8 5 4 4 5 5 5 6 6 6 8 6 7 6 7 7 6 6 5 5 6 6 6 5 7 9 12 12 13 13 13 13 12 12 13 14 14 13
11 5 5 6 6 6 6 6 6 7 6 6 6 6 6 7 6 5 5 6 7 7 7 5 4 6 7 10 15 15 13 13 11 12 12 15 16 13
8 5 5 5 6 6 6 6 6 6 5 5 6 5 6 5 5 5 5 5 6 7 6 5 5 7 11 13 8 13 12 11 12 12 13 14 16 14
4 5 5 5 5 5 5 5 5 5 5 5 5 5 5 5 5 5 5 6 6 7 6 6 6 8 11 13 12 10 15 14 13 14 13 13 15 19
4 4 4 5 4 5 5 5 5 5 5 5 5 5 5 5 5 5 5 10 9 7 8 8 8 13 9 8 12 11 9 16 19 16 15 14 15 14
4 4 4 4 4 4 4 4 4 4 5 5 4 5 5 5 6 6 6 6 6 7 8 8 6 6 7 10 14 15 14 12 15 24 26 24 15 12
4 4 4 3 3 3 3 4 5 4 4 4 4 4 4 5 5 5 5 6 6 7 7 7 6 6 8 10 12 13 16 16 12 12 13 20 27 31
Wind_Direction
230 228 230 231 225 223 217 210 229 257 257 209 211 214 216 217 229 228 222 240 246 250 254 258 260 262 264 266 268 271 273 275 276 276 276 277 277 278
229 229 231 231 228 222 221 217 219 238 259 215 207 195 207 218 227 224 220 237 244 249 253 257 260 262 264 265 267 268 270 271 273 274 275 276 277 277
231 231 233 227 228 223 220 219 222 224 249 248 198 199 201 215 229 220 217 228 240 249 254 258 261 262 263 264 265 266 268 270 272 274 276 277 278 278
235 233 235 229 229 224 222 224 225 223 236 251 219 205 212 213 220 223 229 231 227 247 254 258 259 260 261 262 264 265 267 269 272 274 275 276 277 278
237 234 234 228 231 226 224 225 225 226 228 241 239 213 216 216 221 230 235 235 236 247 254 257 258 259 260 262 263 265 267 269 272 274 275 276 277 277
240 237 235 229 230 227 226 226 223 224 224 232 237 224 221 211 213 228 238 231 238 242 249 252 255 258 259 262 264 266 270 272 274 275 275 275 275 275
245 241 238 236 235 233 229 224 218 222 222 228 234 230 224 213 217 217 234 236 235 233 241 245 250 252 255 262 266 269 270 272 272 273 274 274 274 273
248 246 243 247 247 246 243 237 222 218 220 224 229 228 224 220 220 220 226 230 240 218 227 240 233 240 241 239 255 262 266 268 270 272 273 273 274 273
246 246 245 240 243 238 246 248 243 233 224 217 227 226 222 216 215 223 225 225 232 220 208 245 237 245 241 249 259 263 267 270 272 274 274 274 274 274
247 243 243 242 235 234 230 234 236 238 236 230 225 223 220 215 211 220 226 234 240 235 223 251 249 250 250 245 259 264 268 271 272 274 274 275 275 274
253 245 245 242 245 247 239 233 235 235 242 238 236 229 224 224 218 218 222 227 238 234 216 232 247 254 254 251 255 263 267 270 273 274 275 276 277 276
260 248 253 253 250 251 243 233 234 229 221 234 242 247 239 235 232 221 213 222 233 236 210 213 231 237 263 244 242 250 260 267 270 273 274 275 276 275
266 255 247 259 260 256 248 235 235 227 212 218 224 228 230 231 232 229 218 220 232 238 200 191 221 231 252 268 256 248 247 253 261 266 271 272 272 271
266 257 252 261 261 259 255 245 239 235 219 215 220 221 221 222 222 221 221 223 229 238 225 206 232 245 262 272 275 259 240 247 256 263 261 266 269 268
268 269 269 267 266 262 257 251 243 230 217 216 217 218 215 212 205 209 217 223 231 236 235 223 232 246 251 264 274 274 275 268 257 258 260 260 260 261
281 277 278 275 269 261 256 252 238 225 219 219 218 211 197 196 202 202 210 213 232 245 233 227 229 237 251 258 266 272 270 269 262 260 264 265 261 255
270 255 247 248 242 240 238 233 223 223 226 214 209 202 196 199 204 198 203 206 225 246 251 234 231 236 245 256 266 267 269 269 268 269 269 269 263 257
288 257 243 234 232 234 233 225 218 216 214 208 203 198 197 200 204 199 200 212 233 244 250 249 250 264 262 252 243 260 263 267 268 267 267 271 271 263
286 267 252 236 229 227 224 220 216 207 198 198 200 197 195 199 204 210 212 222 235 245 248 243 242 258 273 278 253 242 260 270 274 271 266 265 270 272
258 260 257 244 228 222 220 216 207 196 195 200 200 197 196 199 209 216 219 226 240 249 254 244 237 244 257 273 280 267 260 265 270 272 271 269 268 271
261 257 255 244 230 222 216 208 199 197 196 195 197 196 196 200 214 220 225 243 249 252 257 256 248 261 267 272 275 274 260 262 267 269 273 274 275 273
264 261 256 243 229 216 206 198 196 198 195 195 197 197 198 203 217 222 227 238 246 250 259 265 263 264 259 266 274 282 286 280 272 272 269 264 263 265
269 263 255 242 222 202 195 193 194 196 193 195 197 199 200 209 217 223 231 240 250 257 264 271 270 259 261 265 274 280 285 290 289 285 274 268 264 261